N415DB PASD-PACD

Flight info

Callsign N415DB
Flight time 0h 37m
Altitude 8000
Route HBT G12 MILAM
Aircraft C208/L-SBDFGRY/LU2

Departure

Time 2026-05-08 19:56
Airport Sand Point Airport (PASD)

Arrival

Time 2026-05-08 20:33
Airport Cold Bay Airport (PACD)
Time Latitude Longitude Altitude Speed Heading
2026-05-08 19:49 55.31752 -160.52197 76 ft 0 kts 333°
2026-05-08 19:52 55.31761 -160.52229 76 ft 3 kts 264°
2026-05-08 19:52 55.31711 -160.52236 73 ft 14 kts 164°
2026-05-08 19:52 55.31641 -160.52231 67 ft 7 kts 197°
2026-05-08 19:52 55.31608 -160.52284 75 ft 5 kts 240°
2026-05-08 19:53 55.31562 -160.52336 72 ft 13 kts 166°
2026-05-08 19:53 55.31443 -160.52220 75 ft 26 kts 148°
2026-05-08 19:53 55.31260 -160.52028 74 ft 35 kts 148°
2026-05-08 19:53 55.31090 -160.51837 82 ft 24 kts 146°
2026-05-08 19:54 55.30962 -160.51691 84 ft 19 kts 147°
2026-05-08 19:54 55.30846 -160.51557 84 ft 19 kts 146°
2026-05-08 19:54 55.30790 -160.51531 83 ft 3 kts 290°
2026-05-08 19:54 55.30811 -160.51547 83 ft 0 kts 327°
2026-05-08 19:55 55.30819 -160.51556 84 ft 13 kts 328°
2026-05-08 19:55 55.31081 -160.51836 84 ft 71 kts 328°
2026-05-08 19:55 55.31582 -160.52325 231 ft 92 kts 334°
2026-05-08 19:55 55.32120 -160.53100 449 ft 111 kts 302°
2026-05-08 19:56 55.32513 -160.54338 688 ft 120 kts 304°
2026-05-08 19:56 55.32946 -160.55645 940 ft 127 kts 303°
2026-05-08 19:56 55.33381 -160.57002 1244 ft 128 kts 300°
2026-05-08 19:56 55.33465 -160.58568 1526 ft 135 kts 264°
2026-05-08 19:57 55.33354 -160.60198 1793 ft 136 kts 268°
2026-05-08 19:57 55.33286 -160.61857 2055 ft 137 kts 269°
2026-05-08 19:57 55.33226 -160.63530 2321 ft 138 kts 266°
2026-05-08 19:57 55.33163 -160.65220 2581 ft 140 kts 266°
2026-05-08 19:58 55.33100 -160.66949 2846 ft 143 kts 266°
2026-05-08 19:58 55.33036 -160.68711 3111 ft 146 kts 266°
2026-05-08 19:58 55.32970 -160.70493 3373 ft 147 kts 267°
2026-05-08 19:58 55.32905 -160.72292 3635 ft 148 kts 268°
2026-05-08 19:59 55.32841 -160.74059 3900 ft 145 kts 269°
2026-05-08 19:59 55.32774 -160.75826 4168 ft 145 kts 269°
2026-05-08 19:59 55.32710 -160.77585 4437 ft 143 kts 269°
2026-05-08 19:59 55.32644 -160.79326 4702 ft 142 kts 270°
2026-05-08 20:00 55.32582 -160.81062 4955 ft 142 kts 270°
2026-05-08 20:00 55.32515 -160.82793 5212 ft 142 kts 272°
2026-05-08 20:00 55.32452 -160.84515 5467 ft 142 kts 272°
2026-05-08 20:00 55.32388 -160.86246 5722 ft 142 kts 271°
2026-05-08 20:01 55.32322 -160.87972 5981 ft 141 kts 271°
2026-05-08 20:01 55.32255 -160.89686 6242 ft 140 kts 271°
2026-05-08 20:01 55.32190 -160.91390 6488 ft 139 kts 271°
2026-05-08 20:01 55.32126 -160.93088 6735 ft 139 kts 271°
2026-05-08 20:02 55.32060 -160.94775 6983 ft 138 kts 272°
2026-05-08 20:02 55.31996 -160.96458 7234 ft 138 kts 271°
2026-05-08 20:02 55.31930 -160.98135 7487 ft 138 kts 271°
2026-05-08 20:02 55.31864 -160.99809 7742 ft 137 kts 272°
2026-05-08 20:03 55.31802 -161.01465 7968 ft 139 kts 272°
2026-05-08 20:03 55.31734 -161.03223 7976 ft 148 kts 271°
2026-05-08 20:03 55.31660 -161.05065 7986 ft 154 kts 271°
2026-05-08 20:03 55.31585 -161.06968 7985 ft 157 kts 271°
2026-05-08 20:04 55.31509 -161.08899 7981 ft 159 kts 271°
2026-05-08 20:04 55.31457 -161.10845 7982 ft 159 kts 276°
2026-05-08 20:04 55.31460 -161.12795 7995 ft 160 kts 274°
2026-05-08 20:04 55.31445 -161.14751 7995 ft 160 kts 274°
2026-05-08 20:05 55.31433 -161.16717 7994 ft 160 kts 275°
2026-05-08 20:05 55.31424 -161.18678 7992 ft 161 kts 275°
2026-05-08 20:05 55.31414 -161.20617 7993 ft 161 kts 275°
2026-05-08 20:05 55.31406 -161.22581 7993 ft 161 kts 274°
2026-05-08 20:06 55.31393 -161.24544 7996 ft 161 kts 274°
2026-05-08 20:06 55.31384 -161.26511 7996 ft 161 kts 274°
2026-05-08 20:06 55.31372 -161.28483 7997 ft 161 kts 275°
2026-05-08 20:06 55.31363 -161.30449 7997 ft 161 kts 275°
2026-05-08 20:07 55.31351 -161.32416 7997 ft 161 kts 275°
2026-05-08 20:07 55.31340 -161.34386 7995 ft 161 kts 274°
2026-05-08 20:07 55.31325 -161.36355 7998 ft 161 kts 275°
2026-05-08 20:07 55.31315 -161.38326 7998 ft 161 kts 274°
2026-05-08 20:08 55.31302 -161.40272 8000 ft 161 kts 274°
2026-05-08 20:08 55.31289 -161.42241 7998 ft 161 kts 274°
2026-05-08 20:08 55.31275 -161.44211 7997 ft 161 kts 274°
2026-05-08 20:08 55.31262 -161.46176 7997 ft 161 kts 274°
2026-05-08 20:09 55.31248 -161.48144 7986 ft 161 kts 273°
2026-05-08 20:09 55.31233 -161.50107 7986 ft 161 kts 273°
2026-05-08 20:09 55.31219 -161.52074 7986 ft 160 kts 273°
2026-05-08 20:09 55.31204 -161.54010 7986 ft 160 kts 273°
2026-05-08 20:10 55.31189 -161.55969 7982 ft 160 kts 273°
2026-05-08 20:10 55.31174 -161.57927 7982 ft 160 kts 273°
2026-05-08 20:10 55.31158 -161.59888 7993 ft 160 kts 273°
2026-05-08 20:10 55.31142 -161.61848 7993 ft 160 kts 273°
2026-05-08 20:11 55.31125 -161.63809 7990 ft 160 kts 273°
2026-05-08 20:11 55.31110 -161.65769 7990 ft 160 kts 273°
2026-05-08 20:11 55.31092 -161.67730 7990 ft 160 kts 273°
2026-05-08 20:11 55.31074 -161.69690 7990 ft 160 kts 273°
2026-05-08 20:12 55.31057 -161.71619 7989 ft 159 kts 273°
2026-05-08 20:12 55.31039 -161.73561 7988 ft 159 kts 273°
2026-05-08 20:12 55.31021 -161.75499 7988 ft 159 kts 273°
2026-05-08 20:12 55.31002 -161.77438 7987 ft 159 kts 273°
2026-05-08 20:13 55.30984 -161.79378 7987 ft 159 kts 273°
2026-05-08 20:13 55.30965 -161.81317 7987 ft 159 kts 273°
2026-05-08 20:13 55.30946 -161.83254 7990 ft 159 kts 273°
2026-05-08 20:13 55.30927 -161.85189 7989 ft 159 kts 273°
2026-05-08 20:14 55.30908 -161.87127 7991 ft 158 kts 273°
2026-05-08 20:14 55.30885 -161.89062 7991 ft 159 kts 273°
2026-05-08 20:14 55.30807 -161.90951 7992 ft 156 kts 262°
2026-05-08 20:14 55.30521 -161.92828 7995 ft 160 kts 250°
2026-05-08 20:15 55.29916 -161.94462 7993 ft 166 kts 226°
2026-05-08 20:15 55.28970 -161.95635 7996 ft 167 kts 215°
2026-05-08 20:15 55.28015 -161.96794 8001 ft 167 kts 219°
2026-05-08 20:15 55.27084 -161.98010 8003 ft 167 kts 219°
2026-05-08 20:16 55.26153 -161.99238 8004 ft 167 kts 219°
2026-05-08 20:16 55.25219 -162.00465 8006 ft 168 kts 219°
2026-05-08 20:16 55.24281 -162.01695 8005 ft 168 kts 220°
2026-05-08 20:16 55.23344 -162.02925 8006 ft 168 kts 219°
2026-05-08 20:17 55.22421 -162.04136 8007 ft 168 kts 219°
2026-05-08 20:17 55.21483 -162.05366 8004 ft 169 kts 219°
2026-05-08 20:17 55.20538 -162.06603 8007 ft 170 kts 219°
2026-05-08 20:17 55.19592 -162.07839 8005 ft 169 kts 219°
2026-05-08 20:18 55.18652 -162.09070 8005 ft 169 kts 219°
2026-05-08 20:18 55.17713 -162.10296 8003 ft 168 kts 219°
2026-05-08 20:18 55.16777 -162.11522 8003 ft 167 kts 219°
2026-05-08 20:18 55.15845 -162.12739 8000 ft 167 kts 219°
2026-05-08 20:19 55.14916 -162.13950 7999 ft 167 kts 219°
2026-05-08 20:19 55.13983 -162.15167 7999 ft 167 kts 219°
2026-05-08 20:19 55.13047 -162.16385 8000 ft 168 kts 219°
2026-05-08 20:19 55.12110 -162.17604 8000 ft 168 kts 219°
2026-05-08 20:20 55.11173 -162.18824 8001 ft 168 kts 220°
2026-05-08 20:20 55.10245 -162.20030 8002 ft 168 kts 220°
2026-05-08 20:20 55.09310 -162.21247 8002 ft 168 kts 220°
2026-05-08 20:20 55.08373 -162.22465 7960 ft 169 kts 220°
2026-05-08 20:21 55.07432 -162.23676 7778 ft 168 kts 219°
2026-05-08 20:21 55.06490 -162.24899 7599 ft 169 kts 219°
2026-05-08 20:21 55.05547 -162.26121 7414 ft 168 kts 219°
2026-05-08 20:21 55.04615 -162.27335 7236 ft 167 kts 220°
2026-05-08 20:22 55.03682 -162.28548 7058 ft 168 kts 219°
2026-05-08 20:22 55.02883 -162.29984 6877 ft 164 kts 244°
2026-05-08 20:22 55.02533 -162.31827 6708 ft 159 kts 264°
2026-05-08 20:22 55.02401 -162.33079 6590 ft 158 kts 264°
2026-05-08 20:23 55.02111 -162.35571 6354 ft 158 kts 263°
2026-05-08 20:23 55.01893 -162.37451 6181 ft 158 kts 263°
2026-05-08 20:23 55.01672 -162.39350 5953 ft 161 kts 264°
2026-05-08 20:23 55.01450 -162.41262 5714 ft 160 kts 263°
2026-05-08 20:24 55.01229 -162.43152 5476 ft 158 kts 263°
2026-05-08 20:24 55.01012 -162.45029 5243 ft 158 kts 264°
2026-05-08 20:24 55.00795 -162.46902 5011 ft 158 kts 263°
2026-05-08 20:24 55.00576 -162.48782 4779 ft 158 kts 262°
2026-05-08 20:25 55.00359 -162.50635 4549 ft 158 kts 263°
2026-05-08 20:25 55.00140 -162.52513 4309 ft 158 kts 263°
2026-05-08 20:25 54.99922 -162.54392 4072 ft 158 kts 262°
2026-05-08 20:25 54.99837 -162.56273 3825 ft 154 kts 285°
2026-05-08 20:26 55.00229 -162.57883 3807 ft 138 kts 309°
2026-05-08 20:26 55.00898 -162.58981 3804 ft 128 kts 332°
2026-05-08 20:26 55.01691 -162.59578 3797 ft 124 kts 342°
2026-05-08 20:26 55.02486 -162.60130 3799 ft 121 kts 342°
2026-05-08 20:27 55.03282 -162.60682 3710 ft 126 kts 341°
2026-05-08 20:27 55.04120 -162.61263 3554 ft 132 kts 341°
2026-05-08 20:27 55.04986 -162.61861 3374 ft 135 kts 342°
2026-05-08 20:27 55.05868 -162.62467 3189 ft 137 kts 341°
2026-05-08 20:28 55.06769 -162.63088 3003 ft 139 kts 341°
2026-05-08 20:28 55.07673 -162.63712 2803 ft 140 kts 341°
2026-05-08 20:28 55.08274 -162.64124 2674 ft 140 kts 341°
2026-05-08 20:28 55.09184 -162.64754 2479 ft 141 kts 341°
2026-05-08 20:29 55.10097 -162.65384 2279 ft 140 kts 341°
2026-05-08 20:29 55.11256 -162.66191 2016 ft 129 kts 340°
2026-05-08 20:29 55.11813 -162.66575 1887 ft 126 kts 341°
2026-05-08 20:29 55.12609 -162.67124 1736 ft 117 kts 341°
2026-05-08 20:30 55.13343 -162.67628 1568 ft 110 kts 341°
2026-05-08 20:30 55.14050 -162.68115 1409 ft 109 kts 341°
2026-05-08 20:30 55.14752 -162.68600 1248 ft 108 kts 341°
2026-05-08 20:30 55.15443 -162.69077 1085 ft 107 kts 340°
2026-05-08 20:31 55.16091 -162.69529 935 ft 95 kts 340°
2026-05-08 20:31 55.16689 -162.69943 791 ft 90 kts 338°
2026-05-08 20:31 55.17243 -162.70327 672 ft 79 kts 337°
2026-05-08 20:31 55.17731 -162.70664 560 ft 73 kts 336°
2026-05-08 20:32 55.18195 -162.70991 472 ft 71 kts 338°
2026-05-08 20:32 55.18646 -162.71303 403 ft 69 kts 337°
2026-05-08 20:32 55.19104 -162.71622 306 ft 72 kts 338°
2026-05-08 20:32 55.19569 -162.71950 183 ft 72 kts 338°
2026-05-08 20:33 55.19979 -162.72237 140 ft 48 kts 338°
2026-05-08 20:33 55.20180 -162.72351 139 ft 14 kts 342°
2026-05-08 20:33 55.20179 -162.72380 139 ft 11 kts 150°
2026-05-08 20:33 55.20132 -162.72293 140 ft 9 kts 94°
2026-05-08 20:34 55.20151 -162.72185 141 ft 12 kts 69°
2026-05-08 20:34 55.20185 -162.72097 141 ft 7 kts 39°
2026-05-08 20:34 55.20253 -162.71982 141 ft 0 kts 336°